Starlink 4445

operational
NORAD ID: 53474 Int'l Des: 2022-099 Owner: SPXS Country: US Constellation: starlink
LEOCIRCULARRETROGRADESSO

About Starlink 4445

Description loading...

Live Position

Loading 3D Globe...

Upcoming Passes

Altitude History

Altitude vs Time

uPlot chart will show altitude changes over time

Two-Line Element Set

1 53474U 22099K 25304.80002403 -.00000229 00000-0 -13300-4 0 9992
2 53474 97.6050 64.0318 0003577 82.6738 277.4893 15.01255297176641
Epoch: Oct 31, 2025 • Age: 16 hours

Current Status

Altitude 565.5 km
Velocity 7.58 km/s
Sub-Earth Point 1.24°N, 144.52°W
Launch Date Aug 12, 2022
Age 3.2 years
Type internet

Technical Details

Classification Payload
Mass 300.00 kg
Dry Mass 275.00 kg
Total Mass 300.00 kg
Length 0.20 m
Diameter 2.80 m
Span 9.00 m
Shape Box + pan
Manufacturer SPXS
Bus Type Starlink
Phase Status In Orbit
Owner/State SPXS/US

Large Constellations

Loading constellations...